Location: Unspecified
(0.0000°N, 0.0000°E)
Time: 06:14:21
(UTC+00:00)

SEEDS - Pass Details

Date: 24 March 2019
Orbit: 585 x 606 km, 97.5° (Epoch: 19 April)

Event Time Altitude Azimuth Distance (km) Brightness Sun altitude
Rises 05:11:27 0° 41° (NE) 2,795 ? -13.8°
Reaches altitude 10° 05:14:17 10° 62° (ENE) 1,899 ? -13.0°
Maximum altitude 05:16:52 16° 102° (ESE) 1,534 ? -12.4°
Drops below altitude 10° 05:19:28 10° 141° (SE) 1,907 ? -11.7°
Sets 05:22:18 0° 162° (SSE) 2,812 ? -11.0°
